Location: Unspecified
(52.4292°N, 19.3359°E)
Time: 23:32:02
(UTC+02:00)

Altair - Pass Details

Date: 21 May 2024
Orbit: 1502 x 1682 km, 47.2° (Epoch: 19 June)

Event Time Altitude Azimuth Distance (km) Brightness Sun altitude
Rises 08:37:35 0° 167° (SSE) 4,806 10.4 33.9°
Reaches altitude 10° 08:44:09 10° 135° (SE) 3,873 10.5 34.8°
Maximum altitude 08:46:29 11° 121° (ESE) 3,806 10.8 35.2°
Drops below altitude 10° 08:48:50 10° 107° (ESE) 3,905 11.0 35.5°
Sets 08:55:30 0° 77° (ENE) 4,927 10.9 36.5°
